Regional Weather Roundup
Issued by NWS

Home | Current Version | Previous Version | Text Only | Print | Product List | Glossary Off
Versions: 1 2 3 4 5 6 7 8 9 10 11 12 13 14 15 16 17 18 19 20 21 22 23 24 25 26 27 28 29 30 31 32 33 34 35 36 37 38 39 40 41 42 43 44 45 46 47 48 49 50

000
ASUS43 KLOT 230008
RWRIL

ILLINOIS REGIONAL WEATHER ROUNDUP
NATIONAL WEATHER SERVICE CHICAGO/ROMEOVILLE IL
600 PM CST WED NOV 22 2017

NOTE: "FAIR" INDICATES FEW OR NO CLOUDS BELOW 12,000 FEET WITH NO
SIGNIFICANT WEATHER AND/OR OBSTRUCTIONS TO VISIBILITY.

* THESE STATIONS ARE NOT UNDER NWS QUALITY CONTROL. THEY ALSO MAY NOT
  REPORT WEATHER SUCH AS PRECIPITATION OR FOG.

ILZ001-002-007-009-015-016-024-230100-
NORTHWEST ILLINOIS

CITY           SKY/WX    TMP DP  RH WIND       PRES   REMARKS
MOLINE         MOCLDY    32  19  58 SE3       30.23F
6HR MIN TEMP:  32; 6HR MAX TEMP:  37;

STERLING*      CLOUDY    31  21  66 CALM      30.23F
SAVANNA*       MOCLDY    32  17  54 S5        30.23F WCI  27
$$

ILZ003-004-008-010-011-017-018-230100-
NORTH CENTRAL ILLINOIS

CITY           SKY/WX    TMP DP  RH WIND       PRES   REMARKS
ROCKFORD       CLOUDY    31  16  54 S7        30.25F WCI  24
6HR MIN TEMP:  31; 6HR MAX TEMP:  37;

FREEPORT*      CLOUDY    30  19  63 S3        30.23F
ROCHELLE*      CLOUDY    29  24  80 S3        30.25F
DE KALB*       CLOUDY    29  19  65 SW3       30.24S
PERU*          CLOUDY    30  19  64 SW5       30.27R WCI  25
$$

ILZ005-006-012>014-019>023-230100-
NORTHEAST ILLINOIS

CITY           SKY/WX    TMP DP  RH WIND       PRES   REMARKS
CHICAGO-OHARE  CLOUDY    32  17  54 W3        30.25R
6HR MIN TEMP:  31; 6HR MAX TEMP:  35;

CHICAGO-MIDWAY MOCLDY    32  17  54 SW7       30.26R WCI  26
6HR MIN TEMP:  32; 6HR MAX TEMP:  35;

AURORA         PTCLDY    29  20  69 SW5       30.26R WCI  24
6HR MIN TEMP:  29; 6HR MAX TEMP:  34;

LANSING*       PTCLDY    27  21  77 S5        30.26F WCI  22
JOLIET*        PTCLDY    32  20  62 CALM      30.27R
WAUKEGAN       PTCLDY    30  16  56 SW3       30.23S
6HR MIN TEMP:  30; 6HR MAX TEMP:  34;

DUPAGE AIRPORT PTCLDY    29  19  66 SW7       30.24S WCI  22
6HR MIN TEMP:  28; 6HR MAX TEMP:  33;

KANKAKEE*      CLOUDY    30  17  60 CALM      30.27S
WHEELING       PTCLDY    32  17  54 W5        30.26S WCI  27
6HR MIN TEMP:  32; 6HR MAX TEMP:  35;

MORRIS*        PTCLDY    31  19  61 SW3       30.26R
ROMEOVILLE*    PTCLDY    29  20  69 SW3       30.26R
NORTHERLY ISL    N/A     33  14  45 S6          N/A  WCI  28
$$

LMZ740>746-230100-
SOUTHERN LAKE MICHIGAN

STATION/POSITION SKY/WX   TEMP    WIND        PRES    VSBY  WAVE
                          AIR SEA DIR/SP/G                  HT/PER
                          (F)     (DEG/KT/KT) (MB)    (MI)  (FT/S)
SOUTHERN BUOY              33 47  260/ 10/ 14 1024.6F         2/ 6
HARRISON CRIB              34     200/ 10/ 11   N/A
BURNHAM HARBOR             33     250/  7/  8   N/A
CALUMET HARBOR             32     220/  4/  5 1023.6F
BURNS HARBOR               34     210/  6/  8 1024.7F
MICHIGAN CITY              33     150/  3/  4   N/A
$$

ILZ025>027-034>036-040-047-049-050-058-095>099-230100-
WEST-CENTRAL ILLINOIS

CITY           SKY/WX    TMP DP  RH WIND       PRES   REMARKS
QUINCY         CLOUDY    33  19  56 SE5       30.24F WCI  29
GALESBURG*     PTCLDY    31  21  65 CALM      30.25F
MACOMB*        PTCLDY    31  19  62 S6        30.27S WCI  25
JACKSONVILLE*  PTCLDY    32  16  52 CALM      30.27F
PITTSFIELD*    PTCLDY    34  18  51 CALM      30.27F
$$

ILZ028>032-037-038-041>044-048-051>054-059>061-230100-
CENTRAL ILLINOIS

CITY           SKY/WX    TMP DP  RH WIND       PRES   REMARKS
PONTIAC        CLOUDY    31  22  68 CALM      30.26F
BLOOMINGTON    PTCLDY    30  20  66 SW6       30.27R WCI  24
DECATUR        CLOUDY    30  19  63 CALM      30.28F
PEORIA         MOCLDY    31  18  58 S6        30.27F WCI  25
6HR MIN TEMP:  30; 6HR MAX TEMP:  37;

LACON*         PTCLDY    30  17  59 CALM      30.26S
LINCOLN*       PTCLDY    32  21  64 CALM      30.28F
SPRINGFIELD    MOCLDY    32  19  58 CALM      30.29F
6HR MIN TEMP:  30; 6HR MAX TEMP:  39;

TAYLORVILLE    CLOUDY    29  19  66 SE3       30.28F
6HR MIN TEMP:  29; 6HR MAX TEMP:  36;

$$

ILZ033-039-045-046-055>057-062-063-230100-
EAST-CENTRAL ILLINOIS

CITY           SKY/WX    TMP DP  RH WIND       PRES   REMARKS
CHAMPAIGN      CLOUDY    30  20  66 CALM      30.27F
DANVILLE*      CLOUDY    28  22  78 CALM      30.25S
RANTOUL*       CLOUDY    32  24  73 CALM      30.27F
MATTOON        CLOUDY    29  19  66 CALM      30.27F
PARIS*         CLOUDY    30  24  78 CALM      30.29S
$$

ILZ079-100>102-230100-
SOUTHWEST ILLINOIS

CITY           SKY/WX    TMP DP  RH WIND       PRES   REMARKS
ALTON          CLEAR     30  21  69 CALM      30.31R
BELLEVILLE     CLOUDY    31  20  63 NW5       30.29R WCI  26
CAHOKIA*       PTCLDY    32  17  54 CALM      30.31R
SPARTA*        CLOUDY    32  21  64 CALM      30.30S
$$

ILZ064>066-069>071-074>076-080>082-084>086-088>090-092>094-230100-
SOUTH-CENTRAL ILLINOIS

CITY           SKY/WX    TMP DP  RH WIND       PRES   REMARKS
CARBONDALE     CLEAR     31  21  66 CALM      30.29F
6HR MIN TEMP:  31; 6HR MAX TEMP:  41;

CAIRO*         CLEAR     36  22  56 N3        30.29S
EFFINGHAM*     CLOUDY    30  22  72 CALM      30.30F
MARION         CLEAR     32  23  69 N6        30.30S WCI  26
MT. VERNON     CLOUDY    28  22  78 CALM      30.29F
CENTRALIA*     CLOUDY    30  23  75 CALM      30.28F
SALEM*         CLOUDY    31  21  64 CALM      30.28F
METROPOLIS*    CLEAR     36  21  53 CALM      30.30R
$$

ILZ067-068-072-073-078-083-087-091-230100-
SOUTHEAST ILLINOIS

CITY           SKY/WX    TMP DP  RH WIND       PRES   REMARKS
LAWRENCEVILLE  CLEAR     33  23  66 N3        30.30S
FLORA*         CLEAR     33  20  58 CALM      30.29F
FAIRFIELD*     CLEAR     32  19  60 CALM      30.29S
HARRISBURG*    CLEAR     33  22  63 CALM      30.30S
ROBINSON*      CLEAR     27  22  81 CALM      30.31S
CARMI*         CLEAR     29  23  78 N3        30.30S
$$

ABBREVIATIONS USED IN REMARKS
   TC - TEMPERATURE IN CELSIUS
  WCI - WIND CHILL INDEX
   HX - HEAT INDEX
  VSB - VISIBILITY
$$




USA.gov is the U.S. government's official web portal to all federal, state and local government web resources and services.